011  
ASUS41 KOKX 241614  
RWROKX  
 
REGIONAL WEATHER ROUNDUP  
NATIONAL WEATHER SERVICE NEW YORK NY  
1200 PM EDT SUN OCT 24 2021  
 
NOTE: "FAIR" INDICATES FEW OR NO CLOUDS BELOW 12,000 FEET WITH NO  
SIGNIFICANT WEATHER AND/OR S TO VISIBILITY
.  
 
NYZ071-072-176-178-NJZ106-104-241700-  
NEW YORK CITY METRO AREA  
 
CITY SKY/WX TMP DP RH WIND PRES REMARKS
 
CENTRAL PARK CLOUDY 55 38 52 VRB3 30.20F  
WORLD TRD CTR NOT AVBL  
BRONX LEHMAN C N/A 55 37 50 NW5 N/A  
LAGUARDIA ARPT PTSUNNY 57 36 45 CALM 30.17F  
QUEENS COLLEGE N/A 55 37 50 SW3 N/A  
KENNEDY INTL PTSUNNY 58 40 51 SW8 30.19F  
BREEZY POINT N/A 55 N/A N/A SW5 N/A  
BROOKLYN COLL N/A 57 39 51 SW3 N/A  
STATEN ISLAND N/A 57 41 54 SW3 N/A  
NEWARK/LIBERTY PTSUNNY 59 40 49 S5 30.18F  
TETERBORO CLOUDY 57 39 51 CALM 30.17F  

 
 
NYZ177-179-078>081-241700-  
LONG ISLAND NEW YORK  
 
CITY SKY/WX TMP DP RH WIND PRES REMARKS
 
JONES BEACH N/A 57 N/A N/A W3 N/A  
WANTAGH N/A 57 39 51 S3 N/A  
HEMPSTEAD NOT AVBL  
MATINECOCK PT N/A 54 N/A N/A SW1 N/A  
FARMINGDALE PTSUNNY 56 39 53 SW3 30.18F  
MACARTHUR/ISP PTSUNNY 59 39 47 CALM 30.17F  
STONY BROOK N/A 55 45 67 NW3 N/A  
SHIRLEY SUNNY 59 42 53 CALM 30.17F  
MT SINAI HARB N/A 59 N/A N/A N3 N/A  
WESTHAMPTON MOSUNNY 56 43 61 MISG 30.19F  
EAST HAMPTON FAIR 55 40 56 W7 30.18F  
SOUTHOLD N/A 54 41 62 NW5 N/A  
MONTAUK N/A 56 38 50 W5 30.19S  

 
 
NYZ052-065-067-241700-  
HUDSON VALLEY  
 
CITY SKY/WX TMP DP RH WIND PRES REMARKS
 
WHITE PLAINS MOSUNNY 54 41 61 NW6 30.16F  
LARCHMONT HARB N/A 54 N/A N/A SE5 N/A  
CROTON ON HUDS N/A 52 N/A N/A W1 N/A  
SOMERS N/A 54 39 58 NW3 N/A  
BREWSTER N/A 52 37 58 NW2 N/A  
NEWBURGH MOSUNNY 52 43 71 CALM 30.17F  
MONTGOMERY SUNNY 53 42 66 S3 30.16F  
OTISVILLE N/A 50 43 76 W2 N/A  
WARWICK N/A 52 41 66 N3 N/A  
SUFFERN N/A 54 39 58 SE3 N/A  
POUGHKEEPSIE MOSUNNY 53 43 68 CALM 30.17F  
ALBANY MOSUNNY 52 32 46 CALM 30.17S  

 
 
NJZ001-105-106-008-010-013-015-019>022-104-241700-  
NEW JERSEY  
 
CITY SKY/WX TMP DP RH WIND PRES REMARKS
 
NEWARK/LIBERTY PTSUNNY 59 40 49 S5 30.18F  
TETERBORO CLOUDY 57 39 51 CALM 30.17F  
CALDWELL CLOUDY 56 40 55 SW3 30.19S  
SOMERVILLE CLOUDY 55 46 71 CALM 30.17F  
LINDEN CLOUDY 56 39 52 CALM 30.19S  
PERTH AMBOY N/A 55 N/A N/A SE1 N/A  
SUSSEX CLOUDY 52 45 77 W5 30.18S  
ANDOVER N/A 50 46 86 SW5 30.18S  
TRENTON CLOUDY 53 47 79 SW6 30.19S  
MILLVILLE CLOUDY 54 47 77 SE3 30.21S  
ATLANTIC CITY CLOUDY 56 47 71 CALM 30.21S  
WRIGHTSTOWN MOSUNNY 59 42 54 SW3 30.20S  
TOMS RIVER N/A 60 44 55 SW9 30.21  
BELMAR CLOUDY 59 43 55 VRB3 30.20F  

 
 
PAZ047>061-062-071-241700-  
EASTERN PENNSYLVANIA  
 
CITY SKY/WX TMP DP RH WIND PRES REMARKS
 
PHILADELPHIA CLOUDY 56 44 64 SW5 30.21F  
ALLENTOWN CLOUDY 50 43 77 CALM 30.19S  
SCRANTON CLOUDY 50 44 80 NW3 30.17R  

 
 
CTZ002-004>006-009-010-012-RIZ004-006-007-MAZ004-011-015-241700-  
SOUTHERN NEW ENGLAND  
 
IN CT  
 
CITY SKY/WX TMP DP RH WIND PRES REMARKS
 
BRADLEY INTL MOSUNNY 53 32 44 VRB3 30.17S  
HARTFORD SUNNY 54 34 46 CALM 30.18S  
DANBURY MOSUNNY 55 39 54 CALM 30.18F  
WTRBURY/OXFORD MOSUNNY 52 39 61 W5 30.18S  
NORWALK HARBOR N/A 54 N/A N/A S5 N/A  
BRIDGEPORT SUNNY 56 41 57 SW7 30.18F  
MERIDEN SUNNY 55 36 48 CALM 30.17F  
NEW HAVEN SUNNY 56 43 61 S6 30.19R  
CHESTER FAIR 57 34 41 VRB6 30.17F  
GROTON SUNNY 54 36 50 SW6 30.17S  
WILLIMANTIC SUNNY 53 31 42 SW6 30.17S  
 
IN RI  
 
CITY SKY/WX TMP DP RH WIND PRES REMARKS
 
PROVIDENCE MOSUNNY 55 32 41 VRB5 30.16F  
BLOCK ISLAND SUNNY 52 33 48 CALM 30.18S  
WESTERLY SUNNY 56 33 42 CALM 30.17S  
 
IN MA  
 
CITY SKY/WX TMP DP RH WIND PRES REMARKS
 
BOSTON MOSUNNY 52 28 39 NW10 30.14S  
WORCESTER SUNNY 50 27 40 W10G16 30.13F  
WESTFIELD SUNNY 52 33 48 S6 30.16F  
PROVINCETOWN SUNNY 52 35 52 NW14 30.15S  
NANTUCKET SUNNY 55 35 47 NW14 30.16S  

 
 
ANZ330-335-338-340-345-350-353-355-241700-  
COASTAL MARINE OBSERVATIONS  
 
 
STATION/POSITION TIME SKY/WX TEMP WIND PRES VSBY WAVE
 
AIR SEA DIR/SP/G HT/PER  
(UTC) (F) (DEG/KT/KT) (MB) (MI) (FT/S)  
NY HARB ENTRANCE 1550 65 230/ 4/ 6 1021.7 1/ 7  
20 S FIRE ISLAND 1550 65 1021.8 2/ 6  
GREAT SOUTH BAY 1530 55 78 60/ 4/ 4 N/A  
23 SSW MONTAUK P 1550 54 65 300/ 6/ 10 1022.6 2/ 7  
15 E BARNEGAT LI 1556 66 N/A 2/15  
HUDSON CANYON 1550 58 66 310/ 4/ 8 1023.0 3/ 5  
KINGS POINT 1530 53 CALM / 3 1023.1  
EXECUTION ROCKS 1545 55 190/ 2/ 27 N/A  
WESTERN LI SOUND 1545 55 CALM / 4 N/A  
CENTRAL LI SOUND NOT AVBL  
ROBBINS REEF 1524 54 360/ 2/ 4 1022.3  

 
 
>>>>>>>>>>>>>>>>>>>>>>>>>>>> KEY <<<<<<<<<<<<<<<<<<<<<<<<<<<  
> <  
> SKY/WX - SKY CONDITION/PRESENT WEATHER <  
> TMP - TEMPERATURE IN FAHRENHEIT <  
> DP - DEW POINT IN FAHRENHEIT <  
> RH - RELATIVE HUMIDITY IN PERCENT <  
> WIND - DIRECTION (FROM) AND SPEED IN MPH <  
> PRES - MEAN SEA LEVEL PRESSURE (INCHES OF HG) <  
> WCI - WIND CHILL INDEX <  
> VSB - VISIBILITY IN MILES <  
> HX - HEAT INDEX <  
> TC - TEMPERATURE IN CELSIUS <  
> VRB - VARIABLE WIND DIRECTION <  
> <  
>>>>>>>>>>>>>>>>>>>>>>>>>>>> KEY <<<<<<<<<<<<<<<<<<<<<<<<<<<  
 
 
CLICK HERE TO GO TO PREVIOUS BULLETINS.

The Nexlab NY Page
The Nexlab NJ Page
The Nexlab CT Page Main Text Page